EN

Hourly Weather Bolshie Mochily

Today, 24 November, Tuesday

Time Temperature Precipitation Wind Pressure Humidity
00:00 -1°C° 0 mm 4 mps 750 mmHg 97%
01:00 -1°C° 0.2 mm 4 mps 750 mmHg 97%
02:00 -1°C° 0.2 mm 4 mps 750 mmHg 97%
03:00 -1°C° 0.2 mm 4 mps 750 mmHg 98%
04:00 -1°C° 0.1 mm 4 mps 750 mmHg 97%
05:00 -1°C° 0.1 mm 4 mps 749 mmHg 97%
06:00 -1°C° 0.1 mm 4 mps 749 mmHg 97%
07:00 -1°C° 0.4 mm 4 mps 749 mmHg 97%
08:00 -1°C° 0.4 mm 4 mps 749 mmHg 97%
09:00 -1°C° 0.4 mm 4 mps 749 mmHg 97%
10:00 -1°C° 0.3 mm 4 mps 749 mmHg 98%
11:00 -1°C° 0.3 mm 4 mps 748 mmHg 98%
12:00 0°C° 0.3 mm 3 mps 748 mmHg 98%
13:00 0°C° 0.1 mm 3 mps 748 mmHg 98%
14:00 0°C° 0.1 mm 3 mps 748 mmHg 98%
15:00 0°C° 0.1 mm 3 mps 748 mmHg 98%
16:00 +1°C° 0.1 mm 2 mps 748 mmHg 98%
17:00 +1°C° 0.1 mm 2 mps 748 mmHg 98%
18:00 +1°C° 0.1 mm 2 mps 748 mmHg 98%
19:00 +1°C° 0 mm 2 mps 748 mmHg 98%
20:00 +1°C° 0 mm 2 mps 749 mmHg 98%
21:00 +1°C° 0 mm 2 mps 749 mmHg 98%
22:00 +1°C° 0 mm 2 mps 749 mmHg 98%
23:00 +1°C° 0 mm 2 mps 749 mmHg 98%

Tomorrow, 25 November, Wednesday

Time Temperature Precipitation Wind Pressure Humidity
00:00 +2°C° 0 mm 1 mps 749 mmHg 98%
01:00 +2°C° 0 mm 1 mps 749 mmHg 98%
02:00 +2°C° 0 mm 1 mps 749 mmHg 97%
03:00 +1°C° 0 mm 1 mps 749 mmHg 97%
04:00 +1°C° 0 mm 1 mps 749 mmHg 96%
05:00 +1°C° 0 mm 1 mps 749 mmHg 95%
06:00 +1°C° 0 mm 1 mps 749 mmHg 95%
07:00 +1°C° 0 mm 1 mps 750 mmHg 94%
08:00 +1°C° 0 mm 1 mps 751 mmHg 94%
09:00 +1°C° 0 mm 1 mps 751 mmHg 93%
10:00 +1°C° 0 mm 1 mps 751 mmHg 92%
11:00 +2°C° 0 mm 1 mps 751 mmHg 91%
12:00 +2°C° 0 mm 1 mps 751 mmHg 90%
13:00 +2°C° 0 mm 1 mps 752 mmHg 91%
14:00 +2°C° 0 mm 1 mps 752 mmHg 92%
15:00 +2°C° 0 mm 1 mps 753 mmHg 93%
16:00 -1°C° 0.1 mm 2 mps 753 mmHg 94%
17:00 -1°C° 0.1 mm 2 mps 753 mmHg 96%
18:00 -1°C° 0.1 mm 2 mps 753 mmHg 97%
19:00 -1°C° 0.1 mm 2 mps 754 mmHg 97%
20:00 -2°C° 0.1 mm 2 mps 754 mmHg 97%
21:00 -2°C° 0.1 mm 2 mps 754 mmHg 96%
22:00 -2°C° 0.1 mm 2 mps 754 mmHg 96%
23:00 -2°C° 0.1 mm 2 mps 754 mmHg 96%

Day after tomorrow, 26 November, Thursday

Time Temperature Precipitation Wind Pressure Humidity
00:00 -3°C° 0.1 mm 2 mps 754 mmHg 96%
01:00 -3°C° 0 mm 2 mps 755 mmHg 96%
02:00 -3°C° 0 mm 2 mps 755 mmHg 96%
03:00 -3°C° 0 mm 2 mps 755 mmHg 96%
04:00 -1°C° 0 mm 1 mps 755 mmHg 96%
05:00 -1°C° 0 mm 1 mps 755 mmHg 96%
06:00 -1°C° 0 mm 1 mps 755 mmHg 96%
07:00 -1°C° 0 mm 1 mps 755 mmHg 96%
08:00 -1°C° 0 mm 1 mps 756 mmHg 96%
09:00 -1°C° 0 mm 1 mps 756 mmHg 95%
10:00 -1°C° 0 mm 1 mps 756 mmHg 93%
11:00 0°C° 0 mm 1 mps 756 mmHg 90%
12:00 -2°C° 0 mm 2 mps 756 mmHg 88%
13:00 -2°C° 0 mm 2 mps 755 mmHg 88%
14:00 -2°C° 0 mm 2 mps 755 mmHg 89%
15:00 -2°C° 0 mm 2 mps 755 mmHg 89%
16:00 -2°C° 0 mm 2 mps 755 mmHg 90%
17:00 -4°C° 0 mm 3 mps 754 mmHg 91%
18:00 -4°C° 0 mm 3 mps 754 mmHg 91%
19:00 -4°C° 0 mm 4 mps 754 mmHg 90%
20:00 -4°C° 0 mm 4 mps 753 mmHg 89%
21:00 -5°C° 0 mm 5 mps 753 mmHg 87%
22:00 -5°C° 0.3 mm 5 mps 753 mmHg 90%
23:00 -4°C° 0.3 mm 5 mps 752 mmHg 92%

27 November, Friday

Time Temperature Precipitation Wind Pressure Humidity
00:00 -4°C° 0.3 mm 5 mps 752 mmHg 94%
01:00 -2°C° 0.6 mm 5 mps 751 mmHg 95%
02:00 -2°C° 0.6 mm 5 mps 751 mmHg 95%
03:00 -1°C° 0.6 mm 5 mps 750 mmHg 96%
04:00 -1°C° 0 mm 5 mps 750 mmHg 95%
05:00 -1°C° 0 mm 5 mps 750 mmHg 94%
06:00 -1°C° 0 mm 5 mps 749 mmHg 93%
07:00 -1°C° 0 mm 5 mps 749 mmHg 93%
08:00 -1°C° 0 mm 5 mps 749 mmHg 92%
09:00 -1°C° 0 mm 5 mps 749 mmHg 91%
10:00 -1°C° 0 mm 5 mps 749 mmHg 91%
11:00 -1°C° 0 mm 5 mps 749 mmHg 90%
12:00 -1°C° 0 mm 5 mps 749 mmHg 89%
13:00 -1°C° 0 mm 5 mps 749 mmHg 89%
14:00 -1°C° 0 mm 4 mps 749 mmHg 90%
15:00 -1°C° 0 mm 4 mps 749 mmHg 90%
16:00 -1°C° 0.1 mm 4 mps 750 mmHg 91%
17:00 -2°C° 0.1 mm 4 mps 750 mmHg 93%
18:00 -2°C° 0.1 mm 4 mps 750 mmHg 95%
19:00 -2°C° 0.2 mm 4 mps 750 mmHg 95%
20:00 -1°C° 0.2 mm 3 mps 751 mmHg 95%
21:00 -1°C° 0.2 mm 3 mps 751 mmHg 95%
22:00 -1°C° 0.1 mm 3 mps 751 mmHg 96%
23:00 -1°C° 0.1 mm 3 mps 751 mmHg 97%

28 November, Saturday

Time Temperature Precipitation Wind Pressure Humidity
00:00 -1°C° 0.1 mm 2 mps 752 mmHg 98%
01:00 -1°C° 0.2 mm 2 mps 752 mmHg 98%
02:00 -1°C° 0.2 mm 2 mps 752 mmHg 98%
03:00 -1°C° 0.2 mm 2 mps 753 mmHg 98%
04:00 -1°C° 0.1 mm 2 mps 753 mmHg 98%
05:00 -1°C° 0.1 mm 2 mps 754 mmHg 98%
06:00 -1°C° 0.1 mm 2 mps 754 mmHg 98%
07:00 -1°C° 0 mm 2 mps 755 mmHg 98%
08:00 -1°C° 0 mm 2 mps 755 mmHg 98%
09:00 +1°C° 0 mm 2 mps 756 mmHg 98%
10:00 +2°C° 0 mm 1 mps 756 mmHg 98%
11:00 +2°C° 0 mm 1 mps 757 mmHg 99%
12:00 +2°C° 0 mm 1 mps 757 mmHg 99%
13:00 +2°C° 0 mm 1 mps 757 mmHg 99%
14:00 +2°C° 0 mm 1 mps 758 mmHg 99%
15:00 +2°C° 0 mm 1 mps 758 mmHg 99%
16:00 +2°C° 0 mm 1 mps 758 mmHg 98%
17:00 +2°C° 0 mm 1 mps 759 mmHg 98%
18:00 +1°C° 0 mm 0 mps 759 mmHg 98%
19:00 +2°C° 0 mm 1 mps 760 mmHg 98%
20:00 +2°C° 0 mm 1 mps 760 mmHg 98%
21:00 +2°C° 0 mm 1 mps 760 mmHg 97%
22:00 0°C° 0 mm 0 mps 760 mmHg 97%
23:00 0°C° 0 mm 0 mps 761 mmHg 97%

29 November, Sunday

Time Temperature Precipitation Wind Pressure Humidity
00:00 0°C° 0 mm 0 mps 761 mmHg 96%
01:00 +1°C° 0.1 mm 1 mps 761 mmHg 96%
02:00 +1°C° 0.1 mm 1 mps 761 mmHg 96%
03:00 +1°C° 0.1 mm 1 mps 762 mmHg 96%
04:00 +1°C° 0.2 mm 1 mps 762 mmHg 96%
05:00 -1°C° 0.2 mm 2 mps 762 mmHg 97%
06:00 -2°C° 0.2 mm 2 mps 762 mmHg 97%
07:00 -2°C° 0.3 mm 2 mps 762 mmHg 97%
08:00 -2°C° 0.3 mm 2 mps 762 mmHg 97%
09:00 -2°C° 0.3 mm 2 mps 763 mmHg 97%
10:00 -2°C° 0.3 mm 2 mps 763 mmHg 96%
11:00 -1°C° 0.3 mm 2 mps 763 mmHg 96%
12:00 -1°C° 0.3 mm 2 mps 763 mmHg 96%
13:00 -1°C° 0.2 mm 2 mps 763 mmHg 95%
14:00 -2°C° 0.2 mm 2 mps 763 mmHg 95%
15:00 -2°C° 0.2 mm 2 mps 764 mmHg 95%
16:00 -2°C° 0.2 mm 2 mps 764 mmHg 95%
17:00 -4°C° 0.2 mm 3 mps 764 mmHg 95%
18:00 -4°C° 0.2 mm 3 mps 764 mmHg 95%
19:00 -5°C° 0 mm 3 mps 765 mmHg 94%
20:00 -5°C° 0 mm 3 mps 765 mmHg 93%
21:00 -5°C° 0 mm 3 mps 765 mmHg 92%
22:00 -5°C° 0 mm 3 mps 766 mmHg 91%
23:00 -6°C° 0 mm 3 mps 766 mmHg 90%
Show more